Home   Weather   Selkirk   Past weeks
Flag for Canada

Past Weather in Selkirk, Manitoba, Canada — Yesterday and Last 2 Weeks

Now
38 °F

Chilly.


Feels Like: 33 °F
Forecast: N/A
Wind: 7 mph from Northwest

Location: Winnipeg The Forks Man

Current Time: Oct 22, 2019 at 5:37:29 pm

Latest Report: Oct 22, 2019 at 4:00 pm


Visibility: N/A

Pressure: 29.67 "Hg

Humidity: 78%

Dew Point: 32 °F

Location of SelkirkLocation

Past Weather in Selkirk — Graph

°F

Selkirk Temperature Yesterday

Maximum temperature yesterday: 50 °F (at 12:00 am)
Minimum temperature yesterday: 36 °F (at 9:00 pm)
Average temperature yesterday: 43 °F

High & Low Weather Summary for the Past Weeks

 TemperatureHumidityPressure
High66 °F (Oct 7, 4:00 pm)100% (Oct 10, 1:00 pm)30.19 "Hg (Oct 10, 1:00 pm)
Low31 °F (Oct 11, 8:00 am)31% (Oct 7, 5:00 pm)29.36 "Hg (Oct 12, 12:00 am)
Average41 °F82%29.77 "Hg
* Reported Oct 7 4:00 pm — Oct 22 4:00 pm, Selkirk. Weather by CustomWeather, © 2019

Note: Actual official high and low records may vary slightly from our data, if they occured in-between our weather recording intervals... More about our weather records

Advertising

Selkirk Weather History for the Previous 24 Hours

Scroll right to see more
 ConditionsComfort  
Time TempWeatherWind HumidityBarometerVisibility
4:00 pm
Tue, Oct 22
38 °FChilly.7 mph78%29.67 "HgN/A
3:00 pm37 °FChilly.9 mph82%29.66 "HgN/A
2:00 pm38 °FChilly.9 mph79%29.65 "HgN/A
1:00 pm36 °FChilly.10 mph84%29.66 "HgN/A
12:00 pm36 °FChilly.7 mph85%29.66 "HgN/A
11:00 am36 °FChilly.12 mph85%29.66 "HgN/A
10:00 am36 °FChilly.10 mph82%29.66 "HgN/A
9:00 am36 °FChilly.10 mph82%29.67 "HgN/A
8:00 am35 °FChilly.10 mph88%29.67 "HgN/A
7:00 am36 °FChilly.9 mph83%29.67 "HgN/A
6:00 am37 °FChilly.9 mph81%29.68 "HgN/A
5:00 am38 °FChilly.10 mph79%29.69 "HgN/A
4:00 am38 °FChilly.10 mph79%29.69 "HgN/A
3:00 am38 °FChilly.10 mph77%29.70 "HgN/A
2:00 am38 °FChilly.8 mph77%29.72 "HgN/A
1:00 am38 °FChilly.10 mph83%29.73 "HgN/A
12:00 am38 °FChilly.12 mph84%29.76 "HgN/A
11:00 pm
Mon, Oct 21
37 °FChilly.12 mph85%29.79 "HgN/A
10:00 pm38 °FChilly.12 mph84%29.81 "HgN/A
9:00 pm36 °FChilly.13 mph88%29.83 "HgN/A
8:00 pm39 °FChilly.12 mph79%29.84 "HgN/A
7:00 pm40 °FQuite cool.12 mph71%29.84 "HgN/A
6:00 pm41 °FQuite cool.10 mph75%29.83 "HgN/A
5:00 pm41 °FQuite cool.9 mph77%29.84 "HgN/A
Weather by CustomWeather, © 2019

See weather overview